Вернуться в каталог

TROOP-F3

АктивенВоенныеSSO
NORAD 68429·PAYLOAD·🇺🇸 United States

Запущен Mar 30, 2026 с Vandenberg Space Force Base

Loading…

Ближайшие Пролёты (ближайшие 24 часа)

TLE

СвежийSource: Space-Track

Эпоха: Sep 14, 2026, 14:43 UTC

1 68429U 26067P   26257.61347996  .00010783  00000-0  48312-3 0  9997
2 68429  97.4602 215.1186 0004612  84.0862 276.0900 15.21412943 25535

Отслеживайте TROOP-F3 в реальном времени с AllMySat

Download on the App Store